一网星座-0419星 (ONEWEB-0419 )

导读 | 星芒AI

ONEWEB-0419 是 OneWeb 卫星星座计划中的一颗低轨通信卫星,主要用于提供全球宽带互联网服务。该卫星于2023年发射,运行在约1200公里高的近地轨道,设计寿命为15年。作为 OneWeb 扩展其卫星网络的一部分,该卫星增强了公司在极地和偏远地区的网络覆盖能力。其搭载先进通信载荷,支持高速数据传输,助力实现全球无缝连接。ONEWEB-0419 的成功部署进一步推动了 OneWeb 在全球卫星互联网市场的竞争力。

基本信息
目录编号:
50494
目录名称:
ONEWEB-0419
国际标识:
2021-132AB
轨道中心:
EARTH
卫星名称:
一网星座-0419星
卫星全名:
一网星座-0419星 (ONEWEB-0419 )
卫星状态:
在轨 (已飞行1449 天)
发射日期:
2021-12-27 UTC
国别 :
英国 (GB)
星等 :
--
轨道信息
数据来源 国际轨道数据 AOE轨道数据
星历时间 2025-12-15T03:50:37+0800
23小时前
查看轨道信息
2025-12-09T09:00:00+0800
6天前
查看轨道信息
半长轴 7567.879km 7567.881km
偏心率 0.0001455 0.0001267
轨道倾角 87.918° 87.922°
近地点辐角 96.398° 87.390°
升交点赤经 12.066° 13.217°
平近点角 263.732° 184.802°
近地点 1188.642km 1188.787km
远地点 1190.846km 1190.705km
周期 109.200分钟 109.200分钟
每日圈数 13.186863 13.186859
详细信息
平衡模式:
三轴稳定
覆盖范围:
全球
运营商:
一网卫星公司
运营商所在国:
英国
制造商(研发单位):
一网卫星公司
制造商所在国:
英国
使用方式:
暂无
卫星简介
OneWeb卫星网络由648颗重约125公斤的微型卫星组成,运行在1200公里的轨道上。 每颗卫星都能够提供至少每秒8千兆位的吞吐量,以使用其高吞吐量的Ku频段有效载荷为家庭和移动平台提供互联网接入。该卫星仍在工作。
2D轨道图
3D轨道图
轨道高度分析图
轨道倾角分析图
轨道综合分析图
查看轨道综合分析图